Location: Dal�� Lhota
(48.7500°N, 14.0167°E)
Time: 07:29:56
(UTC+00:00)

Transit 2A - Pass Details

Date: 02 August 2021
Orbit: 594 x 964 km, 66.7° (Epoch: 24 September)

Event Time Altitude Azimuth Distance (km) Brightness Sun altitude
Rises 15:04:14 0° 312° (NW) 3,288 9.7 33.8°
Reaches altitude 10° 15:07:13 10° 295° (WNW) 2,424 9.5 33.3°
Maximum altitude 15:11:02 19° 252° (WSW) 1,942 10.1 32.7°
Drops below altitude 10° 15:15:02 10° 210° (SSW) 2,570 9.4 32.0°
Sets 15:18:21 0° 193° (SSW) 3,558 9.7 31.5°
